EDDF

Frankfurt am Main Airport

Airport
ICAO code
EDDF
IATA Code
FRA
Summary
ICAO Region
EUR
ICAO Territory
Location

Frankfurt,

Serving
Frankfurt
Elevation
364 ft
Coordinates
50° 2' 28" N , 8° 34' 24" E
KCC
Airport LOS
Parallel Runway Operation
Metar
Observation
EDDF 041550Z AUTO 03008KT 9999 OVC013 03/00 Q1014 NOSIG
Station
Frankfurt / M-Flughafen
Date/Time
2022-12-04 15:50:00
Wind direction
30°
Wind speed
08 kts
Lowest cloud amount
overcast
Temperature
3°C
Dew point
0°C
Humidity
80%
QNH
1014 hPa
Weather condition
n/a

Description

International airport serving Frankfurt am Main, Germany.

Climatology

Temperate Marine climate/Oceanic climate (Köppen climate classification Cfb) - Moderately cool summer and comparatively warm winter.

Runways

Designator Length Width Surface Rops
07C/25C 4000 60 CON Yes/Yes
07R/25L 4000 45 CON Yes/Yes
18/36 4000 45 CON Yes/Yes

SKYbrary Partners:

Safety knowledge contributed by: